Latest Weather Observations for Mount Gambier

IDS60801

Issued at 11:35 pm CST Thursday 2 October 2014 (issued every 30 minutes, with the page automatically refreshed every 10 minutes)

About weather observations | Map of weather stations | Latest weather observations for SA | Other Formats
Station Details ID: 026021 Name: MOUNT GAMBIER AERO Lat: -37.75 Lon: 140.77 Height: 63.0 m
Data from the previous 72 hours. | See also: Recent months at Mount Gambier
Date/Time
CST
Temp
°C
App
Temp
°C
Dew
Point
Rel
Hum
%
Delta-T
°C
Wind Press
QNH
hPa
Press
MSL
hPa
Rain
since 9 am
mm
Dir
 
Spd
km/h
Gust
km/h
Spd
kts
Gust
kts
02/11:30pm 10.3 10.2 9.3 93 0.5 SSW 0 6 0 3 1025.1 - 0.0
02/11:19pm 10.4 9.1 9.2 92 0.6 SSW 6 7 3 4 1025.2 - 0.0
02/11:00pm 10.5 8.6 9.1 91 0.7 S 9 11 5 6 1025.1 - 0.0
02/10:30pm 10.6 8.6 8.6 87 1.0 S 9 11 5 6 1025.4 - 0.0
02/10:00pm 10.0 9.7 8.6 91 0.7 CALM 0 0 0 0 1025.5 - 0.0
02/09:30pm 10.1 9.1 8.7 91 0.7 NW 4 7 2 4 1025.6 - 0.0
02/09:00pm 10.5 9.8 8.7 89 0.9 SSW 2 11 1 6 1025.7 1025.7 0.0
02/08:30pm 10.7 8.6 8.4 86 1.1 S 9 11 5 6 1025.8 - 0.0
02/08:00pm 10.9 8.8 8.2 83 1.3 SW 9 13 5 7 1025.9 - 0.0
02/07:30pm 11.4 8.9 8.3 81 1.5 SW 11 17 6 9 1025.7 - 0.0
02/07:00pm 11.6 8.1 7.4 75 2.0 WSW 15 19 8 10 1025.6 - 0.0
02/06:30pm 11.8 8.8 7.7 76 2.0 SW 13 17 7 9 1025.2 - 0.0
02/06:00pm 12.0 8.7 7.9 76 2.0 SW 15 19 8 10 1025.3 1025.3 0.0
02/05:30pm 12.1 8.6 8.9 81 1.6 SSW 17 20 9 11 1025.2 - 0.0
02/05:00pm 12.5 7.5 9.5 82 1.5 SSW 26 30 14 16 1025.0 - 0.0
02/04:30pm 13.5 9.5 8.3 71 2.6 SW 19 24 10 13 1024.9 - 0.0
02/04:00pm 13.6 10.2 9.3 75 2.2 SW 17 24 9 13 1024.8 - 0.0
02/03:30pm 13.3 10.1 9.8 79 1.8 WSW 17 24 9 13 1024.9 - 0.0
02/03:00pm 14.1 9.7 9.0 71 2.6 W 22 30 12 16 1024.8 1024.8 0.0
02/02:30pm 15.2 11.5 7.8 61 3.7 SW 17 24 9 13 1024.9 - 0.0
02/02:00pm 14.9 10.9 8.1 64 3.4 WSW 19 28 10 15 1025.2 - 0.0
02/01:30pm 14.4 10.5 8.6 68 2.9 SW 19 26 10 14 1025.4 - 0.0
02/01:00pm 13.8 9.8 9.1 73 2.4 WSW 20 28 11 15 1025.9 - 0.0
02/12:30pm 14.6 10.3 8.0 64 3.3 WSW 20 28 11 15 1026.0 - 0.0
02/12:00pm 14.2 9.9 7.7 65 3.2 WSW 20 30 11 16 1026.3 1026.3 0.0
02/11:30am 14.0 9.9 7.9 66 3.0 WSW 19 24 10 13 1026.4 - 0.0
02/11:00am 14.3 10.2 7.8 65 3.2 WSW 19 26 10 14 1026.5 - 0.0
02/10:30am 13.8 9.5 7.0 63 3.3 SW 19 30 10 16 1026.7 - 0.0
02/10:00am 13.3 8.6 7.8 69 2.7 WSW 22 32 12 17 1026.7 - 0.0
02/09:30am 13.3 8.7 8.0 70 2.6 W 22 30 12 16 1026.5 - 0.0
02/08:30am 13.0 8.8 7.4 69 2.7 WSW 19 26 10 14 1026.4 - 0.0
02/08:00am 12.4 9.5 8.3 76 2.0 W 13 19 7 10 1026.2 - 0.0
02/07:30am 11.9 9.6 9.1 83 1.4 WNW 11 13 6 7 1026.0 - 0.0
02/07:00am 11.2 9.3 9.0 86 1.1 WNW 9 13 5 7 1025.8 - 0.0
02/06:30am 10.7 8.4 9.1 90 0.8 NW 11 13 6 7 1025.6 - 0.0
02/06:00am 10.3 8.0 8.9 91 0.7 NW 11 13 6 7 1025.5 1025.5 0.0
02/05:30am 10.1 7.1 9.1 93 0.5 NNW 15 17 8 9 1025.0 - 0.0
02/05:00am 10.3 8.0 9.1 92 0.6 NW 11 15 6 8 1025.1 - 0.0
02/04:30am 10.5 7.8 8.9 90 0.8 WNW 13 17 7 9 1024.9 - 0.0
02/04:00am 10.3 7.5 8.5 89 0.9 WNW 13 17 7 9 1024.9 - 0.0
02/03:30am 10.3 6.8 8.7 90 0.8 W 17 24 9 13 1024.9 - 0.0
02/03:00am 11.0 7.6 7.7 80 1.6 W 15 19 8 10 1025.0 1025.0 0.0
02/02:30am 11.1 7.8 6.6 74 2.1 W 13 20 7 11 1025.1 - 0.0
02/02:00am 10.9 8.1 6.9 76 1.9 WNW 11 15 6 8 1025.2 - 0.0
02/01:30am 10.8 7.6 6.8 76 1.9 WNW 13 15 7 8 1025.6 - 0.0
02/01:00am 10.8 7.6 7.0 77 1.8 W 13 17 7 9 1025.9 - 0.0
02/12:30am 10.5 7.5 7.8 83 1.3 NW 13 15 7 8 1026.2 - 0.0
02/12:00am 10.4 7.4 7.9 84 1.2 NW 13 15 7 8 1026.2 1026.2 0.0
 
Date/Time
CST
Temp
°C
App
Temp
°C
Dew
Point
Rel
Hum
%
Delta-T
°C
Wind Press
QNH
hPa
Press
MSL
hPa
Rain
since 9 am
mm
Dir
 
Spd
km/h
Gust
km/h
Spd
kts
Gust
kts
01/11:30pm 10.2 7.3 8.1 87 1.0 WNW 13 19 7 10 1026.4 - 0.0
01/11:00pm 9.9 7.0 8.0 88 0.9 NNW 13 15 7 8 1026.7 - 0.0
01/10:30pm 10.2 7.7 8.1 87 1.0 WNW 11 15 6 8 1026.7 - 0.0
01/10:00pm 9.9 7.7 8.0 88 0.9 WNW 9 11 5 6 1026.9 - 0.0
01/09:30pm 10.0 7.9 8.3 89 0.8 WNW 9 11 5 6 1027.1 - 0.0
01/09:00pm 10.2 7.3 8.3 88 0.9 W 13 17 7 9 1027.2 1027.2 0.0
01/08:30pm 10.2 7.3 6.3 77 1.8 W 11 13 6 7 1027.0 - 0.0
01/08:00pm 10.8 7.4 6.1 73 2.2 W 13 17 7 9 1026.9 - 0.0
01/07:30pm 10.3 7.8 6.4 77 1.8 NNW 9 11 5 6 1026.9 - 0.0
01/07:00pm 10.5 8.0 6.4 76 1.9 WNW 9 11 5 6 1026.8 - 0.0
01/06:30pm 10.9 7.5 5.7 70 2.4 W 13 19 7 10 1026.5 - 0.0
01/06:00pm 11.2 8.2 5.8 69 2.5 W 11 13 6 7 1026.4 1026.4 0.0
01/05:30pm 12.0 8.0 5.0 62 3.2 WSW 15 17 8 9 1026.3 - 0.0
01/05:00pm 12.4 7.5 5.0 60 3.4 WSW 20 30 11 16 1026.2 - 0.0
01/04:30pm 13.4 8.3 4.2 53 4.2 WSW 20 30 11 16 1026.0 - 0.0
01/04:00pm 14.2 9.6 3.6 49 4.8 WSW 17 24 9 13 1025.9 - 0.0
01/03:30pm 14.0 9.5 4.1 51 4.5 SW 17 22 9 12 1025.9 - 0.0
01/03:00pm 13.8 9.7 6.0 59 3.7 W 17 24 9 13 1025.9 1025.9 0.0
01/02:30pm 12.6 8.2 6.5 66 2.9 WSW 19 24 10 13 1026.1 - 0.0
01/02:00pm 12.8 7.4 6.5 65 3.0 WSW 24 32 13 17 1026.4 - 0.0
01/01:30pm 13.8 7.8 5.2 56 4.0 W 26 30 14 16 1026.4 - 0.0
01/01:00pm 14.0 8.9 3.9 50 4.6 WSW 20 33 11 18 1026.3 - 0.0
01/12:30pm 13.5 7.6 4.0 52 4.3 WSW 24 32 13 17 1026.4 - 0.0
01/12:00pm 13.5 8.4 4.0 52 4.3 SW 20 32 11 17 1026.3 1026.3 0.0
01/11:30am 14.1 8.2 3.7 49 4.7 SW 24 32 13 17 1026.3 - 0.0
01/11:00am 13.9 8.7 3.7 50 4.6 WSW 20 30 11 16 1026.4 - 0.0
01/10:30am 12.3 6.8 3.8 56 3.8 SW 22 30 12 16 1026.5 - 0.0
01/10:00am 12.4 7.0 4.7 59 3.5 SW 22 30 12 16 1026.5 - 0.0
01/09:30am 11.9 5.6 3.5 56 3.7 SW 26 33 14 18 1026.4 - 0.0
01/09:00am 12.2 6.4 4.2 58 3.6 SW 24 32 13 17 1025.9 1025.9 9.4
01/08:30am 11.6 6.3 3.1 56 3.7 SW 20 30 11 16 1025.4 - 9.4
01/08:00am 10.4 6.9 5.6 72 2.2 W 13 15 7 8 1024.8 - 9.4
01/07:30am 9.0 6.3 5.7 80 1.5 NW 9 11 5 6 1024.5 - 9.4
01/07:00am 6.5 4.1 5.4 93 0.5 NW 7 9 4 5 1024.1 - 9.4
01/06:30am 5.8 3.2 4.4 91 0.6 NW 7 9 4 5 1023.8 - 9.4
01/06:00am 5.1 1.6 3.7 91 0.6 NW 11 11 6 6 1023.2 1023.2 9.4
01/05:30am 6.5 2.8 4.7 88 0.8 WNW 13 15 7 8 1022.8 - 9.4
01/05:00am 7.1 3.8 4.3 82 1.2 W 11 22 6 12 1022.4 - 9.0
01/04:30am 6.5 3.0 3.4 80 1.3 SW 11 15 6 8 1021.8 - 9.0
01/04:00am 7.4 2.8 3.7 77 1.6 WSW 17 26 9 14 1021.5 - 9.0
01/03:30am 6.5 2.7 3.7 82 1.2 W 13 32 7 17 1021.5 - 8.8
01/03:00am 5.6 2.4 3.2 84 1.0 WSW 9 11 5 6 1021.1 1021.1 8.8
01/02:30am 6.3 2.7 2.9 79 1.4 SW 11 15 6 8 1020.9 - 8.8
01/02:00am 7.3 3.3 2.7 72 1.9 WSW 13 17 7 9 1020.4 - 8.8
01/01:30am 8.0 2.8 2.5 68 2.3 WSW 19 33 10 18 1020.4 - 8.8
01/01:00am 7.3 3.1 1.4 66 2.4 W 13 17 7 9 1020.2 - 8.8
01/12:30am 7.8 3.5 1.1 62 2.7 WSW 13 19 7 10 1020.1 - 8.8
01/12:00am 7.8 2.8 1.4 64 2.6 WSW 17 26 9 14 1019.8 1019.8 8.8
 
Date/Time
CST
Temp
°C
App
Temp
°C
Dew
Point
Rel
Hum
%
Delta-T
°C
Wind Press
QNH
hPa
Press
MSL
hPa
Rain
since 9 am
mm
Dir
 
Spd
km/h
Gust
km/h
Spd
kts
Gust
kts
30/11:30pm 8.3 2.3 0.9 59 3.0 WSW 22 30 12 16 1019.3 - 8.8
30/11:00pm 8.3 3.1 3.7 73 2.0 SW 20 32 11 17 1019.0 - 8.8
30/10:30pm 8.5 1.9 -0.1 54 3.4 WSW 24 33 13 18 1018.6 - 8.8
30/10:00pm 8.3 2.7 1.2 61 2.9 WSW 20 30 11 16 1018.3 - 8.8
30/09:30pm 8.0 2.1 1.9 65 2.5 WSW 22 30 12 16 1017.8 - 8.8
30/09:02pm 8.6 1.8 3.0 68 2.4 W 28 50 15 27 1017.3 - 8.8
30/09:00pm 8.4 2.9 4.0 74 1.9 W 22 32 12 17 1017.5 1017.6 8.8
30/08:30pm 6.8 2.7 4.3 84 1.1 WNW 15 17 8 9 1016.9 - 8.8
30/08:00pm 7.2 3.0 3.7 78 1.5 W 15 20 8 11 1016.4 - 8.8
30/07:30pm 6.7 2.7 4.9 88 0.8 W 15 22 8 12 1016.0 - 8.8
30/07:00pm 6.8 2.5 5.2 89 0.7 W 17 19 9 10 1015.4 - 8.8
30/06:30pm 7.1 2.9 5.8 91 0.6 W 17 20 9 11 1014.9 - 8.8
30/06:00pm 7.6 1.6 5.1 84 1.1 WSW 26 37 14 20 1014.7 1014.8 8.6
30/05:30pm 7.6 -0.3 4.6 81 1.3 W 35 56 19 30 1014.3 - 8.2
30/05:29pm 7.6 0.3 4.6 81 1.3 W 32 56 17 30 1014.2 - 8.2
30/05:14pm 7.2 -0.5 5.2 87 0.9 WSW 35 54 19 29 1013.5 - 8.0
30/05:08pm 7.3 -1.3 4.8 84 1.1 WSW 39 52 21 28 1013.9 - 7.6
30/05:00pm 9.0 0.9 5.2 77 1.7 W 37 52 20 28 1013.4 - 7.0
30/04:45pm 11.0 2.5 3.3 59 3.4 W 37 56 20 30 1012.7 - 6.6
30/04:30pm 11.6 1.4 1.2 49 4.4 W 44 57 24 31 1012.5 - 6.6
30/04:12pm 11.8 2.2 1.4 49 4.4 W 41 59 22 32 1012.2 - 6.6
30/04:00pm 11.9 2.0 2.5 52 4.1 W 44 59 24 32 1012.0 - 6.6
30/03:30pm 12.1 2.6 4.1 58 3.6 W 43 56 23 30 1011.6 - 6.6
30/03:00pm 13.1 4.8 4.4 55 4.0 WSW 37 50 20 27 1011.0 1011.1 6.6
30/02:30pm 13.0 3.2 3.4 52 4.3 W 44 67 24 36 1010.3 - 6.6
30/02:00pm 14.1 3.2 5.4 56 4.1 W 52 72 28 39 1009.7 - 6.6
30/01:30pm 13.6 3.3 4.5 54 4.2 W 48 67 26 36 1009.0 - 6.6
30/01:00pm 12.6 4.7 7.9 73 2.3 W 39 57 21 31 1008.5 - 6.6
30/12:30pm 11.3 1.9 8.9 85 1.2 W 48 69 26 37 1008.2 - 6.2
30/12:13pm 13.7 6.1 10.5 81 1.7 W 41 59 22 32 1007.4 - 6.2
30/12:00pm 12.1 4.5 10.6 90 0.8 W 41 - 22 - - 1007.5 -
30/11:55am 11.9 4.8 10.8 93 0.6 W 39 50 21 27 1007.3 - 6.2
30/11:31am 10.4 -0.6 9.2 92 0.6 W 57 76 31 41 1007.5 - 6.0
30/11:27am 10.3 -2.0 8.5 89 0.9 W 63 74 34 40 1007.4 - 5.8
30/11:14am 13.5 6.0 11.0 85 1.3 WNW 41 59 22 32 1006.6 - 4.4
30/11:00am 14.7 7.0 10.1 74 2.4 WNW 41 63 22 34 1006.2 - 4.2
30/10:33am 14.5 6.1 9.0 69 2.8 WNW 43 61 23 33 1006.1 - 4.2
30/10:30am 14.3 5.9 9.5 73 2.5 WNW 44 61 24 33 1006.0 - 4.2
30/10:20am 13.4 5.0 10.9 85 1.3 WNW 46 76 25 41 1006.1 - 4.2
30/10:00am 14.6 9.3 12.4 87 1.2 NW 32 52 17 28 1005.7 - 4.0
30/09:30am 12.6 6.8 11.5 93 0.6 WNW 33 54 18 29 1006.2 - 4.0
30/09:10am 12.5 5.8 11.0 90 0.8 WNW 37 57 20 31 1006.5 - 3.0
30/09:00am 13.7 8.0 11.8 88 1.0 NNW 33 - 18 - - 1006.2 0.2
30/08:57am 13.8 7.7 11.8 88 1.1 NNW 35 48 19 26 1006.0 - 0.2
30/08:43am 15.0 8.5 10.5 74 2.4 NNW 35 54 19 29 1006.0 - 0.0
30/08:30am 15.0 8.3 9.8 71 2.7 NNW 35 52 19 28 1006.1 - 0.0
30/08:00am 14.9 9.5 10.8 76 2.2 NNW 30 41 16 22 1006.5 - 0.0
30/07:30am 14.3 9.3 10.9 80 1.8 NNW 28 44 15 24 1006.6 - 0.0
30/07:00am 12.9 9.1 11.0 88 1.0 N 22 30 12 16 1006.7 - 0.0
30/06:30am 12.1 8.6 10.8 92 0.7 N 20 30 11 16 1006.7 - 0.0
30/06:00am 11.9 8.0 10.8 93 0.6 N 22 28 12 15 1006.8 1006.9 0.0
30/05:30am 12.4 8.5 10.9 90 0.8 N 22 32 12 17 1006.6 - 0.0
30/05:00am 12.4 8.9 10.9 90 0.8 N 20 30 11 16 1006.7 - 0.0
30/04:30am 12.2 8.7 10.9 92 0.7 N 20 35 11 19 1007.0 - 0.0
30/04:00am 11.9 8.9 10.8 93 0.6 N 17 24 9 13 1007.4 - 0.0
30/03:51am 11.7 8.3 10.5 92 0.6 N 19 28 10 15 1007.3 - 0.0
30/03:30am 11.4 7.8 10.4 94 0.5 N 20 26 11 14 1007.7 - 0.0
30/03:18am 11.4 7.9 10.2 92 0.6 N 19 28 10 15 1008.0 - 0.0
30/03:00am 11.5 8.4 10.3 92 0.6 N 17 26 9 14 1008.0 1008.1 0.0
30/02:30am 11.2 7.6 10.0 92 0.6 N 19 28 10 15 1008.2 - 0.0
30/02:00am 10.8 7.1 9.6 92 0.6 N 19 28 10 15 1008.6 - 0.0
30/01:30am 10.6 6.9 9.6 93 0.5 N 19 26 10 14 1008.8 - 0.0
30/01:00am 10.4 7.4 9.4 93 0.5 N 15 20 8 11 1009.6 - 0.0
30/12:30am 10.2 7.6 9.4 95 0.4 N 13 19 7 10 1009.8 - 0.0
30/12:00am 10.2 7.2 9.4 95 0.4 N 15 24 8 13 1010.3 1010.4 0.0

Other Formats:

Comma delimited format used in spreadsheet applications
http://www.bom.gov.au/fwo/IDS60801/IDS60801.94821.axf

JavaScript Object Notation format (JSON) in row-major order
http://www.bom.gov.au/fwo/IDS60801/IDS60801.94821.json